Location: Hopewell Observatory
(38.8698°N, 77.6988°W)
Time: 10:24:39
(UTC-04:00)

Helios 1B rocket - Pass Details

Date: 26 May 2018
Orbit: 577 x 584 km, 98.2° (Epoch: 22 September)

Event Time Altitude Azimuth Distance (km) Brightness Sun altitude
Rises 21:37:53 0° 35° (NE) 2,812 6.0 -12.4°
Reaches altitude 10° 21:41:08 10° 63° (ENE) 1,904 4.9 -12.8°
Enters shadow 21:43:07 13° 92° (E) 1,694 4.4 -13.1°
